TimeCDT,TemperatureF,Dew PointF,Humidity,Sea Level PressureIn,VisibilityMPH,Wind Direction,Wind SpeedMPH,Gust SpeedMPH,PrecipitationIn,Events,Conditions,WindDirDegrees,DateUTC
12:15 AM,32.0,30.2,93,30.35,10.0,Calm,Calm,-,N/A,,Clear,0,2013-03-27 05:15:00
12:35 AM,32.0,32.0,100,30.35,10.0,Calm,Calm,-,N/A,,Clear,0,2013-03-27 05:35:00
12:55 AM,32.0,30.2,93,30.35,10.0,Calm,Calm,-,N/A,,Clear,0,2013-03-27 05:55:00
1:15 AM,32.0,30.2,93,30.35,10.0,Calm,Calm,-,N/A,,Clear,0,2013-03-27 06:15:00
1:35 AM,32.0,30.2,93,30.35,10.0,Calm,Calm,-,N/A,,Clear,0,2013-03-27 06:35:00
1:55 AM,32.0,30.2,93,30.34,10.0,Calm,Calm,-,N/A,,Clear,0,2013-03-27 06:55:00
2:15 AM,32.0,30.2,93,30.33,10.0,SSW,3.5,-,N/A,,Clear,200,2013-03-27 07:15:00
2:35 AM,32.0,30.2,93,30.32,10.0,Calm,Calm,-,N/A,,Clear,0,2013-03-27 07:35:00
2:55 AM,32.0,30.2,93,30.32,10.0,Calm,Calm,-,N/A,,Clear,0,2013-03-27 07:55:00
3:15 AM,32.0,30.2,93,30.31,10.0,Calm,Calm,-,N/A,,Clear,0,2013-03-27 08:15:00
3:35 AM,32.0,30.2,93,30.30,10.0,Calm,Calm,-,N/A,,Clear,0,2013-03-27 08:35:00
3:55 AM,32.0,32.0,100,30.30,10.0,Calm,Calm,-,N/A,,Clear,0,2013-03-27 08:55:00
4:15 AM,32.0,30.2,93,30.30,10.0,Calm,Calm,-,N/A,,Clear,0,2013-03-27 09:15:00
4:35 AM,30.2,28.4,93,30.29,10.0,Calm,Calm,-,N/A,,Clear,0,2013-03-27 09:35:00
4:55 AM,30.2,30.2,100,30.29,10.0,Calm,Calm,-,N/A,,Clear,0,2013-03-27 09:55:00
5:15 AM,30.2,30.2,100,30.29,10.0,Calm,Calm,-,N/A,,Clear,0,2013-03-27 10:15:00
5:35 AM,30.2,28.4,93,30.29,10.0,Calm,Calm,-,N/A,,Clear,0,2013-03-27 10:35:00
5:55 AM,30.2,28.4,93,30.30,10.0,Calm,Calm,-,N/A,,Clear,0,2013-03-27 10:55:00
6:15 AM,30.2,28.4,93,30.30,10.0,Calm,Calm,-,N/A,,Clear,0,2013-03-27 11:15:00
6:35 AM,30.2,28.4,93,30.31,10.0,Calm,Calm,-,N/A,,Clear,0,2013-03-27 11:35:00
6:55 AM,30.2,28.4,93,30.31,10.0,Calm,Calm,-,N/A,,Clear,0,2013-03-27 11:55:00
7:15 AM,28.4,28.4,100,30.33,7.0,Calm,Calm,-,N/A,,Clear,0,2013-03-27 12:15:00
7:35 AM,30.2,30.2,100,30.33,5.0,Calm,Calm,-,N/A,,Clear,0,2013-03-27 12:35:00
7:55 AM,30.2,30.2,100,30.34,7.0,Calm,Calm,-,N/A,,Clear,0,2013-03-27 12:55:00
8:15 AM,32.0,32.0,100,30.34,10.0,Calm,Calm,-,N/A,,Clear,0,2013-03-27 13:15:00
8:35 AM,32.0,32.0,100,30.34,10.0,Calm,Calm,-,N/A,,Clear,0,2013-03-27 13:35:00
8:55 AM,35.6,32.0,87,30.34,10.0,Calm,Calm,-,N/A,,Clear,0,2013-03-27 13:55:00
9:15 AM,35.6,32.0,87,30.34,10.0,Calm,Calm,-,N/A,,Clear,0,2013-03-27 14:15:00
9:35 AM,41.0,33.8,76,30.34,10.0,Calm,Calm,-,N/A,,Clear,0,2013-03-27 14:35:00
9:55 AM,42.8,32.0,66,30.35,10.0,Calm,Calm,-,N/A,,Clear,0,2013-03-27 14:55:00
10:15 AM,46.4,30.2,53,30.35,10.0,Calm,Calm,-,N/A,,Clear,0,2013-03-27 15:15:00
10:35 AM,51.8,32.0,47,30.34,10.0,South,3.5,-,N/A,,Clear,180,2013-03-27 15:35:00
10:55 AM,53.6,30.2,41,30.34,10.0,South,6.9,-,N/A,,Clear,170,2013-03-27 15:55:00
11:15 AM,55.4,30.2,38,30.34,10.0,South,15.0,18.4,N/A,,Clear,180,2013-03-27 16:15:00
11:35 AM,55.4,28.4,36,30.33,10.0,South,13.8,18.4,N/A,,Clear,180,2013-03-27 16:35:00
11:55 AM,57.2,28.4,33,30.33,10.0,SSE,12.7,17.3,N/A,,Clear,160,2013-03-27 16:55:00
12:15 PM,59.0,28.4,31,30.31,10.0,South,12.7,17.3,N/A,,Clear,180,2013-03-27 17:15:00
12:35 PM,59.0,26.6,29,30.31,10.0,South,11.5,-,N/A,,Clear,170,2013-03-27 17:35:00
12:55 PM,59.0,28.4,31,30.30,10.0,South,8.1,-,N/A,,Clear,180,2013-03-27 17:55:00
1:15 PM,60.8,28.4,29,30.28,10.0,SSW,10.4,-,N/A,,Clear,200,2013-03-27 18:15:00
1:35 PM,60.8,28.4,29,30.27,10.0,SSW,12.7,-,N/A,,Clear,200,2013-03-27 18:35:00
1:55 PM,60.8,28.4,29,30.26,10.0,SSW,10.4,17.3,N/A,,Clear,210,2013-03-27 18:55:00
2:15 PM,62.6,28.4,27,30.24,10.0,SSW,13.8,20.7,N/A,,Clear,200,2013-03-27 19:15:00
2:35 PM,62.6,26.6,26,30.23,10.0,South,15.0,18.4,N/A,,Clear,190,2013-03-27 19:35:00
2:55 PM,64.4,26.6,24,30.21,10.0,South,9.2,16.1,N/A,,Clear,170,2013-03-27 19:55:00
3:15 PM,64.4,26.6,24,30.21,10.0,SSW,15.0,-,N/A,,Clear,200,2013-03-27 20:15:00
3:35 PM,66.2,28.4,24,30.20,10.0,South,8.1,-,N/A,,Clear,170,2013-03-27 20:35:00
3:55 PM,64.4,28.4,26,30.19,10.0,South,16.1,19.6,N/A,,Clear,180,2013-03-27 20:55:00
4:15 PM,64.4,30.2,28,30.18,10.0,South,12.7,-,N/A,,Clear,190,2013-03-27 21:15:00
4:35 PM,66.2,32.0,28,30.17,10.0,South,15.0,-,N/A,,Clear,190,2013-03-27 21:35:00
4:55 PM,66.2,30.2,26,30.16,10.0,South,16.1,19.6,N/A,,Clear,180,2013-03-27 21:55:00
5:15 PM,66.2,32.0,28,30.15,10.0,South,11.5,-,N/A,,Clear,190,2013-03-27 22:15:00
5:35 PM,66.2,32.0,28,30.15,10.0,South,9.2,-,N/A,,Clear,170,2013-03-27 22:35:00
5:55 PM,66.2,32.0,28,30.14,10.0,SSE,5.8,-,N/A,,Clear,150,2013-03-27 22:55:00
6:15 PM,64.4,30.2,28,30.15,10.0,South,8.1,-,N/A,,Clear,170,2013-03-27 23:15:00
6:35 PM,64.4,32.0,30,30.15,10.0,South,4.6,-,N/A,,Clear,170,2013-03-27 23:35:00
6:55 PM,62.6,32.0,32,30.15,10.0,South,9.2,-,N/A,,Clear,170,2013-03-27 23:55:00
7:15 PM,60.8,32.0,34,30.16,10.0,South,6.9,-,N/A,,Clear,170,2013-03-28 00:15:00
7:35 PM,60.8,32.0,34,30.17,10.0,SSE,4.6,-,N/A,,Clear,150,2013-03-28 00:35:00
7:55 PM,59.0,32.0,36,30.18,10.0,Calm,Calm,-,N/A,,Clear,0,2013-03-28 00:55:00
8:15 PM,59.0,32.0,36,30.19,10.0,SSE,4.6,-,N/A,,Clear,150,2013-03-28 01:15:00
8:35 PM,59.0,32.0,36,30.20,10.0,SSE,4.6,-,N/A,,Clear,150,2013-03-28 01:35:00
8:55 PM,55.4,33.8,44,30.20,10.0,SSE,3.5,-,N/A,,Clear,160,2013-03-28 01:55:00
9:15 PM,53.6,32.0,44,30.21,10.0,Calm,Calm,-,N/A,,Clear,0,2013-03-28 02:15:00
9:35 PM,51.8,35.6,54,30.21,10.0,Calm,Calm,-,N/A,,Clear,0,2013-03-28 02:35:00
9:55 PM,51.8,37.4,58,30.22,10.0,Calm,Calm,-,N/A,,Clear,0,2013-03-28 02:55:00
10:15 PM,51.8,37.4,58,30.22,10.0,Calm,Calm,-,N/A,,Clear,0,2013-03-28 03:15:00
10:35 PM,46.4,33.8,62,30.23,10.0,Calm,Calm,-,N/A,,Clear,0,2013-03-28 03:35:00
10:55 PM,48.2,35.6,62,30.23,10.0,Calm,Calm,-,N/A,,Clear,0,2013-03-28 03:55:00
11:15 PM,44.6,35.6,71,30.23,10.0,Calm,Calm,-,N/A,,Clear,0,2013-03-28 04:15:00
11:35 PM,44.6,33.8,66,30.22,10.0,Calm,Calm,-,N/A,,Clear,0,2013-03-28 04:35:00
11:55 PM,42.8,33.8,70,30.22,10.0,Calm,Calm,-,N/A,,Clear,0,2013-03-28 04:55:00